Time,TemperatureF,DewpointF,PressureIn,WindDirection,WindDirectionDegrees,WindSpeedMPH,WindSpeedGustMPH,Humidity,HourlyPrecipIn,Conditions,Clouds,dailyrainin,SoftwareType,DateUTC
2013-10-25 00:11:00,28.9,26.0,30.39,SSW,204,0.0,0.0,87,0.00,,,0.00,weatherlink.com 1.10,2013-10-25 05:11:00,
2013-10-25 00:26:00,28.1,25.0,30.39,SSW,204,0.0,0.0,87,0.00,,,0.00,weatherlink.com 1.10,2013-10-25 05:26:00,
2013-10-25 00:41:00,27.8,25.0,30.39,SSW,205,0.0,0.0,89,0.00,,,0.00,weatherlink.com 1.10,2013-10-25 05:41:00,
2013-10-25 00:56:00,27.3,25.0,30.39,SSW,204,0.0,0.0,89,0.00,,,0.00,weatherlink.com 1.10,2013-10-25 05:56:00,
2013-10-25 01:11:00,26.9,25.0,30.39,SSW,205,0.0,0.0,91,0.00,,,0.00,weatherlink.com 1.10,2013-10-25 06:11:00,
2013-10-25 01:26:00,27.0,25.0,30.39,SSW,205,0.0,0.0,91,0.00,,,0.00,weatherlink.com 1.10,2013-10-25 06:26:00,
2013-10-25 01:41:00,26.7,25.0,30.39,SSW,205,0.0,0.0,91,0.00,,,0.00,weatherlink.com 1.10,2013-10-25 06:41:00,
2013-10-25 01:58:00,26.9,25.0,30.40,SSW,205,0.0,0.0,92,0.00,,,0.00,weatherlink.com 1.10,2013-10-25 06:58:00,
2013-10-25 02:11:00,26.5,24.0,30.40,SSW,205,0.0,0.0,91,0.00,,,0.00,weatherlink.com 1.10,2013-10-25 07:11:00,
2013-10-25 02:26:00,25.7,24.0,30.39,SSW,205,0.0,0.0,91,0.00,,,0.00,weatherlink.com 1.10,2013-10-25 07:26:00,
2013-10-25 02:41:00,25.7,24.0,30.40,SSW,204,0.0,0.0,93,0.00,,,0.00,weatherlink.com 1.10,2013-10-25 07:41:00,
2013-10-25 02:56:00,25.9,24.0,30.40,SSW,205,0.0,0.0,93,0.00,,,0.00,weatherlink.com 1.10,2013-10-25 07:56:00,
2013-10-25 03:11:00,25.9,24.0,30.40,SSW,205,0.0,0.0,92,0.00,,,0.00,weatherlink.com 1.10,2013-10-25 08:11:00,
2013-10-25 03:26:00,26.1,24.0,30.40,SSW,205,0.0,0.0,92,0.00,,,0.00,weatherlink.com 1.10,2013-10-25 08:26:00,
2013-10-25 03:41:00,26.1,24.0,30.39,SSW,204,0.0,0.0,92,0.00,,,0.00,weatherlink.com 1.10,2013-10-25 08:41:00,
2013-10-25 03:56:00,25.3,23.0,30.40,SSW,205,0.0,0.0,92,0.00,,,0.00,weatherlink.com 1.10,2013-10-25 08:56:00,
2013-10-25 04:11:00,25.0,23.0,30.39,SSW,204,0.0,0.0,92,0.00,,,0.00,weatherlink.com 1.10,2013-10-25 09:11:00,
2013-10-25 04:27:00,24.0,22.0,30.39,SW,217,0.0,1.0,91,0.00,,,0.00,weatherlink.com 1.10,2013-10-25 09:27:00,
2013-10-25 04:42:00,23.3,21.0,30.39,SW,217,0.0,0.0,91,0.00,,,0.00,weatherlink.com 1.10,2013-10-25 09:42:00,
2013-10-25 04:57:00,23.1,21.0,30.39,SSW,211,0.0,1.0,92,0.00,,,0.00,weatherlink.com 1.10,2013-10-25 09:57:00,
2013-10-25 05:12:00,22.4,21.0,30.39,SSW,211,0.0,0.0,92,0.00,,,0.00,weatherlink.com 1.10,2013-10-25 10:12:00,
2013-10-25 05:27:00,21.8,20.0,30.39,SSW,211,0.0,1.0,93,0.00,,,0.00,weatherlink.com 1.10,2013-10-25 10:27:00,
2013-10-25 05:42:00,21.9,20.0,30.39,SSW,211,0.0,0.0,93,0.00,,,0.00,weatherlink.com 1.10,2013-10-25 10:42:00,
2013-10-25 05:57:00,22.4,21.0,30.39,SSW,209,0.0,1.0,94,0.00,,,0.00,weatherlink.com 1.10,2013-10-25 10:57:00,
2013-10-25 06:12:00,22.6,21.0,30.38,SSW,210,0.0,1.0,94,0.00,,,0.00,weatherlink.com 1.10,2013-10-25 11:12:00,
2013-10-25 06:27:00,22.6,21.0,30.38,SSW,208,1.0,2.0,93,0.00,,,0.00,weatherlink.com 1.10,2013-10-25 11:27:00,
2013-10-25 06:42:00,22.6,21.0,30.39,SW,219,1.0,2.0,93,0.00,,,0.00,weatherlink.com 1.10,2013-10-25 11:42:00,
2013-10-25 06:57:00,22.6,21.0,30.38,SSW,212,0.0,0.0,93,0.00,,,0.00,weatherlink.com 1.10,2013-10-25 11:57:00,
2013-10-25 07:12:00,22.5,21.0,30.38,South,191,0.0,0.0,93,0.00,,,0.00,weatherlink.com 1.10,2013-10-25 12:12:00,
2013-10-25 07:27:00,22.3,21.0,30.37,SW,230,0.0,0.0,93,0.00,,,0.00,weatherlink.com 1.10,2013-10-25 12:27:00,
2013-10-25 07:42:00,22.0,20.0,30.36,SSW,207,0.0,0.0,93,0.00,,,0.00,weatherlink.com 1.10,2013-10-25 12:42:00,
2013-10-25 07:57:00,21.8,20.0,30.36,SSW,207,0.0,0.0,94,0.00,,,0.00,weatherlink.com 1.10,2013-10-25 12:57:00,
2013-10-25 08:12:00,22.3,21.0,30.36,SSW,207,0.0,0.0,95,0.00,,,0.00,weatherlink.com 1.10,2013-10-25 13:12:00,
2013-10-25 08:27:00,23.9,23.0,30.36,East,89,0.0,0.0,95,0.00,,,0.00,weatherlink.com 1.10,2013-10-25 13:27:00,
2013-10-25 08:42:00,26.4,24.0,30.36,South,184,0.0,3.0,92,0.00,,,0.00,weatherlink.com 1.10,2013-10-25 13:42:00,
2013-10-25 08:57:00,28.9,26.0,30.36,SE,143,1.0,3.0,89,0.00,,,0.00,weatherlink.com 1.10,2013-10-25 13:57:00,
2013-10-25 09:12:00,30.7,27.0,30.35,SSW,210,1.0,3.0,87,0.00,,,0.00,weatherlink.com 1.10,2013-10-25 14:12:00,
2013-10-25 09:27:00,32.1,28.0,30.35,SSW,198,3.0,9.0,84,0.00,,,0.00,weatherlink.com 1.10,2013-10-25 14:27:00,
2013-10-25 09:42:00,33.2,29.0,30.34,SW,234,3.0,7.0,84,0.00,,,0.00,weatherlink.com 1.10,2013-10-25 14:42:00,
2013-10-25 09:57:00,34.4,29.0,30.34,WSW,255,0.0,11.0,80,0.00,,,0.00,weatherlink.com 1.10,2013-10-25 14:57:00,
2013-10-25 10:12:00,35.9,30.0,30.33,SW,214,4.0,10.0,78,0.00,,,0.00,weatherlink.com 1.10,2013-10-25 15:12:00,
2013-10-25 10:27:00,37.3,30.0,30.32,SSW,207,5.0,8.0,75,0.00,,,0.00,weatherlink.com 1.10,2013-10-25 15:27:00,
2013-10-25 10:43:00,39.6,30.0,30.32,NE,51,2.0,10.0,69,0.00,,,0.00,weatherlink.com 1.10,2013-10-25 15:43:00,
2013-10-25 10:58:00,40.0,29.0,30.31,SW,221,6.0,13.0,65,0.00,,,0.00,weatherlink.com 1.10,2013-10-25 15:58:00,
2013-10-25 11:13:00,40.8,29.0,30.30,SW,216,4.0,11.0,63,0.00,,,0.00,weatherlink.com 1.10,2013-10-25 16:13:00,
2013-10-25 11:28:00,41.9,29.0,30.30,SSE,163,4.0,14.0,61,0.00,,,0.00,weatherlink.com 1.10,2013-10-25 16:28:00,
2013-10-25 11:43:00,43.5,29.0,30.29,SSW,201,4.0,16.0,58,0.00,,,0.00,weatherlink.com 1.10,2013-10-25 16:43:00,
2013-10-25 11:58:00,44.2,28.0,30.27,WSW,255,10.0,16.0,54,0.00,,,0.00,weatherlink.com 1.10,2013-10-25 16:58:00,
2013-10-25 12:13:00,45.5,30.0,30.26,SSW,207,9.0,19.0,54,0.00,,,0.00,weatherlink.com 1.10,2013-10-25 17:13:00,
2013-10-25 12:28:00,46.6,30.0,30.25,WSW,243,11.0,14.0,53,0.00,,,0.00,weatherlink.com 1.10,2013-10-25 17:28:00,
2013-10-25 12:43:00,47.9,30.0,30.23,West,270,4.0,17.0,51,0.00,,,0.00,weatherlink.com 1.10,2013-10-25 17:43:00,
2013-10-25 12:58:00,49.0,30.0,30.22,WSW,252,14.0,20.0,49,0.00,,,0.00,weatherlink.com 1.10,2013-10-25 17:58:00,
2013-10-25 13:13:00,49.5,31.0,30.20,SW,219,13.0,22.0,49,0.00,,,0.00,weatherlink.com 1.10,2013-10-25 18:13:00,
2013-10-25 13:28:00,50.9,32.0,30.19,SSW,207,11.0,21.0,49,0.00,,,0.00,weatherlink.com 1.10,2013-10-25 18:28:00,
2013-10-25 13:43:00,51.4,32.0,30.17,SW,229,9.0,18.0,48,0.00,,,0.00,weatherlink.com 1.10,2013-10-25 18:43:00,
2013-10-25 13:58:00,52.0,33.0,30.16,WSW,252,10.0,24.0,49,0.00,,,0.00,weatherlink.com 1.10,2013-10-25 18:58:00,
2013-10-25 14:13:00,52.8,33.0,30.15,SSW,198,13.0,21.0,48,0.00,,,0.00,weatherlink.com 1.10,2013-10-25 19:13:00,
2013-10-25 14:29:00,53.4,34.0,30.14,WSW,249,10.0,24.0,48,0.00,,,0.00,weatherlink.com 1.10,2013-10-25 19:29:00,
2013-10-25 14:43:00,53.7,34.0,30.13,WSW,248,11.0,30.0,48,0.00,,,0.00,weatherlink.com 1.10,2013-10-25 19:43:00,
2013-10-25 14:59:00,54.0,34.0,30.13,SW,227,8.0,22.0,48,0.00,,,0.00,weatherlink.com 1.10,2013-10-25 19:59:00,
2013-10-25 15:14:00,54.2,35.0,30.11,SSW,201,13.0,22.0,49,0.00,,,0.00,weatherlink.com 1.10,2013-10-25 20:14:00,
2013-10-25 15:29:00,54.6,36.0,30.10,WSW,247,14.0,21.0,49,0.00,,,0.00,weatherlink.com 1.10,2013-10-25 20:29:00,
2013-10-25 15:44:00,55.0,36.0,30.10,SW,236,4.0,22.0,49,0.00,,,0.00,weatherlink.com 1.10,2013-10-25 20:44:00,
2013-10-25 15:59:00,55.1,36.0,30.09,SSW,210,4.0,20.0,49,0.00,,,0.00,weatherlink.com 1.10,2013-10-25 20:59:00,
2013-10-25 16:14:00,55.7,36.0,30.08,West,276,7.0,16.0,48,0.00,,,0.00,weatherlink.com 1.10,2013-10-25 21:14:00,
2013-10-25 16:29:00,55.5,35.0,30.07,SW,224,8.0,24.0,47,0.00,,,0.00,weatherlink.com 1.10,2013-10-25 21:29:00,
2013-10-25 16:44:00,55.4,36.0,30.06,SSW,195,8.0,18.0,48,0.00,,,0.00,weatherlink.com 1.10,2013-10-25 21:44:00,
2013-10-25 16:59:00,55.4,36.0,30.05,WSW,255,6.0,19.0,48,0.00,,,0.00,weatherlink.com 1.10,2013-10-25 21:59:00,
2013-10-25 17:14:00,55.1,36.0,30.03,WSW,251,13.0,29.0,49,0.00,,,0.00,weatherlink.com 1.10,2013-10-25 22:14:00,
2013-10-25 17:29:00,54.5,36.0,30.03,SSW,206,11.0,16.0,50,0.00,,,0.00,weatherlink.com 1.10,2013-10-25 22:29:00,
2013-10-25 17:44:00,53.8,36.0,30.02,SW,223,6.0,19.0,51,0.00,,,0.00,weatherlink.com 1.10,2013-10-25 22:44:00,
2013-10-25 17:59:00,53.0,36.0,30.01,WSW,241,6.0,21.0,52,0.00,,,0.00,weatherlink.com 1.10,2013-10-25 22:59:00,
2013-10-25 18:14:00,52.0,36.0,30.01,SSW,198,6.0,17.0,54,0.00,,,0.00,weatherlink.com 1.10,2013-10-25 23:14:00,
2013-10-25 18:29:00,51.3,36.0,30.00,SSW,212,6.0,15.0,56,0.00,,,0.00,weatherlink.com 1.10,2013-10-25 23:29:00,
2013-10-25 18:44:00,50.6,36.0,30.00,ESE,112,7.0,14.0,57,0.00,,,0.00,weatherlink.com 1.10,2013-10-25 23:44:00,
2013-10-25 18:59:00,50.2,36.0,30.00,SW,217,7.0,15.0,58,0.00,,,0.00,weatherlink.com 1.10,2013-10-25 23:59:00,
2013-10-25 19:14:00,49.7,36.0,30.01,SW,217,13.0,18.0,59,0.00,,,0.00,weatherlink.com 1.10,2013-10-26 00:14:00,
2013-10-25 19:29:00,49.0,36.0,30.00,SSE,159,5.0,14.0,61,0.00,,,0.00,weatherlink.com 1.10,2013-10-26 00:29:00,
2013-10-25 19:44:00,48.6,36.0,30.00,SW,214,10.0,14.0,62,0.00,,,0.00,weatherlink.com 1.10,2013-10-26 00:44:00,
2013-10-25 19:59:00,48.2,36.0,29.99,WSW,257,6.0,12.0,62,0.00,,,0.00,weatherlink.com 1.10,2013-10-26 00:59:00,
2013-10-25 20:14:00,47.8,36.0,29.98,South,175,4.0,15.0,63,0.00,,,0.00,weatherlink.com 1.10,2013-10-26 01:14:00,
2013-10-25 20:29:00,47.3,36.0,29.99,West,260,3.0,14.0,64,0.00,,,0.00,weatherlink.com 1.10,2013-10-26 01:29:00,
2013-10-25 20:59:00,46.3,35.0,29.99,SW,221,8.0,15.0,65,0.00,,,0.00,weatherlink.com 1.10,2013-10-26 01:59:00,
2013-10-25 21:14:00,46.1,35.0,29.99,South,174,3.0,12.0,66,0.00,,,0.00,weatherlink.com 1.10,2013-10-26 02:14:00,
2013-10-25 21:29:00,45.8,35.0,29.98,West,264,7.0,13.0,66,0.00,,,0.00,weatherlink.com 1.10,2013-10-26 02:29:00,
2013-10-25 21:44:00,45.6,35.0,29.99,SW,218,7.0,13.0,67,0.00,,,0.00,weatherlink.com 1.10,2013-10-26 02:44:00,
2013-10-25 21:59:00,45.6,35.0,29.98,WSW,247,3.0,12.0,66,0.00,,,0.00,weatherlink.com 1.10,2013-10-26 02:59:00,
2013-10-25 22:14:00,45.1,35.0,29.98,SW,228,11.0,14.0,67,0.00,,,0.00,weatherlink.com 1.10,2013-10-26 03:14:00,
2013-10-25 22:29:00,44.6,35.0,29.98,SW,219,3.0,14.0,68,0.00,,,0.00,weatherlink.com 1.10,2013-10-26 03:29:00,
2013-10-25 22:45:00,44.4,35.0,29.97,SSE,148,6.0,15.0,69,0.00,,,0.00,weatherlink.com 1.10,2013-10-26 03:45:00,
2013-10-25 23:00:00,44.4,34.0,29.96,SSW,207,9.0,15.0,68,0.00,,,0.00,weatherlink.com 1.10,2013-10-26 04:00:00,
2013-10-25 23:15:00,44.4,34.0,29.95,SW,236,3.0,12.0,68,0.00,,,0.00,weatherlink.com 1.10,2013-10-26 04:15:00,
2013-10-25 23:30:00,44.2,34.0,29.94,WSW,237,6.0,12.0,68,0.00,,,0.00,weatherlink.com 1.10,2013-10-26 04:30:00,
2013-10-25 23:45:00,44.0,34.0,29.94,SSW,206,4.0,14.0,68,0.00,,,0.00,weatherlink.com 1.10,2013-10-26 04:45:00,